Theta_e
317 320 319 317 314 309 314 314 315 317 315 314 315 312 309 304 310 307 305 309 310 309 307 306 307 309 306 312 309 314 313 313 313 319 320 320 320 319 318 316 318 319 321 324 326 327 327
313 315 318 319 317 315 309 315 313 316 316 315 314 314 312 307 305 310 308 311 311 310 309 306 307 308 308 309 308 309 314 311 312 315 316 318 318 318 319 317 316 318 318 320 323 323 325
310 312 314 316 317 318 314 312 315 314 315 315 314 315 314 310 304 309 310 312 311 312 311 309 306 308 310 310 308 310 310 311 313 314 315 315 317 318 319 318 319 318 319 318 319 319 321
307 308 308 312 315 316 317 312 313 313 313 314 314 315 315 309 305 306 309 311 309 307 310 311 310 306 308 309 310 310 311 312 314 314 314 314 313 312 313 317 318 319 318 321 319 319 321
305 305 305 307 309 313 316 317 312 313 313 314 313 314 314 310 307 306 310 309 307 308 310 312 312 308 307 308 308 309 310 312 312 312 313 312 312 312 315 318 318 317 318 319 321 319 322
303 304 305 305 307 307 313 315 317 313 312 313 314 314 316 311 312 305 309 309 308 309 311 313 310 310 310 310 309 310 309 311 311 312 312 312 312 311 312 315 317 317 316 317 319 320 320
302 303 303 304 304 304 307 311 314 315 312 314 313 313 316 312 313 309 308 310 309 311 312 313 311 311 310 310 310 310 310 310 311 311 312 312 312 312 311 313 314 314 314 315 316 317 319
300 301 301 303 304 304 304 308 311 315 314 313 313 312 314 314 312 312 307 310 310 311 309 311 311 312 312 311 311 310 311 311 311 311 310 311 313 312 310 310 314 315 316 316 314 315 318
299 299 301 302 303 303 303 303 308 310 316 313 312 313 314 314 312 311 306 308 309 309 309 310 310 311 311 312 312 311 310 310 310 311 311 311 310 310 311 312 313 313 316 315 315 315 314
298 300 298 301 302 302 302 303 303 306 310 314 312 313 314 313 314 311 310 307 310 310 310 311 309 311 311 312 312 311 311 311 311 311 311 311 310 311 311 312 312 314 313 315 314 315 316
298 299 298 300 301 301 301 303 303 306 310 314 312 313 315 313 312 309 307 309 309 309 303 308 309 310 311 312 311 311 311 311 313 311 310 311 310 311 311 311 312 313 312 313 315 315 316
298 298 298 299 299 301 301 302 304 304 308 311 311 313 314 313 308 306 306 308 311 304 305 311 309 309 310 311 312 311 311 311 311 312 311 311 310 311 311 310 311 313 313 314 314 316 320
298 297 298 299 299 302 300 301 303 304 306 307 310 313 314 313 309 308 310 311 308 301 309 311 311 309 309 311 310 311 312 312 313 312 310 311 311 310 311 312 311 311 313 315 316 316 315
298 298 298 299 300 299 301 301 302 304 305 306 310 312 314 313 310 311 310 309 308 308 310 311 310 309 311 309 311 310 311 312 309 309 310 304 306 310 310 311 312 312 312 315 313 311 312
298 297 297 298 298 299 300 301 303 305 306 304 309 312 313 311 310 310 308 310 307 309 311 311 311 312 312 311 311 311 310 309 311 309 310 308 309 311 310 310 311 311 313 311 313 315 318
298 297 297 298 298 300 300 300 303 305 306 307 309 311 312 313 308 309 308 310 308 312 311 311 311 312 313 311 312 311 308 308 309 308 308 309 309 311 311 310 311 311 310 312 313 311 318
297 297 297 298 298 298 299 301 303 305 305 304 308 313 311 311 307 308 309 312 309 311 311 311 312 314 313 313 311 309 309 309 308 309 308 309 312 311 311 310 312 312 311 312 311 313 319
297 297 297 298 297 297 299 302 302 305 305 307 308 309 310 310 311 309 310 310 310 310 311 311 311 313 314 314 314 309 310 310 310 310 310 310 313 313 312 312 310 310 311 312 313 312 315
297 297 297 297 297 297 299 301 302 303 304 305 311 310 310 309 309 310 310 310 311 311 311 311 312 311 312 313 315 310 310 311 311 311 312 311 314 315 318 313 315 312 314 312 313 317 315
296 296 297 296 297 298 300 301 301 302 304 303 309 312 311 311 309 311 311 311 312 310 311 310 311 311 312 313 312 314 312 311 312 312 312 311 313 315 320 321 319 319 315 316 314 316 314
296 296 296 296 298 299 300 301 301 303 305 305 309 311 311 311 311 311 311 313 313 313 310 310 310 311 313 315 313 313 313 313 313 313 313 312 316 313 313 314 316 319 319 319 317 316 316
296 296 296 296 297 298 299 301 301 303 304 307 311 312 310 310 311 312 312 313 313 312 311 311 311 312 312 315 313 311 312 313 316 313 314 314 315 313 318 322 319 322 320 320 319 318 314
296 296 296 296 297 299 299 301 301 303 305 307 311 311 312 311 312 312 313 312 313 313 312 312 311 312 314 313 312 312 312 312 315 317 315 316 316 317 324 321 322 324 317 323 317 321 325
296 296 296 296 297 298 299 300 301 302 305 306 311 312 313 314 312 313 312 312 312 312 314 312 312 314 313 314 314 312 312 313 314 316 315 315 316 321 323 317 322 319 314 321 323 322 321
296 296 296 296 296 297 298 300 301 302 306 309 311 312 311 314 314 313 313 313 312 313 313 313 312 313 313 313 315 317 315 316 315 313 317 318 316 323 321 318 318 317 314 317 322 322 318
296 296 295 296 296 297 298 299 300 303 306 311 311 311 312 313 313 313 313 312 313 312 311 312 313 314 313 315 317 316 318 320 319 318 316 316 316 322 313 317 322 317 314 312 314 318 314
296 295 295 295 295 297 298 299 300 302 305 310 311 311 312 312 312 312 312 313 311 312 312 312 312 313 314 317 319 316 320 317 320 320 320 320 319 321 317 319 317 315 313 313 319 315 313
295 296 295 295 295 297 298 299 300 302 305 310 311 312 312 311 312 312 312 310 311 311 312 312 315 315 316 317 319 315 315 319 315 314 320 319 319 320 320 319 317 313 312 316 311 313 312
295 295 295 295 295 296 297 298 299 303 305 310 312 312 311 312 312 312 311 312 312 312 311 312 313 315 316 317 315 316 318 317 319 317 312 320 316 320 316 317 313 313 313 314 314 314 311
Wind_Speed
21 18 24 24 21 20 19 19 20 18 18 18 18 15 12 12 10 7 6 4 3 3 3 4 5 5 8 8 13 9 6 3 6 11 17 15 11 6 4 4 8 5 5 17 20 22 26
25 27 22 20 24 21 21 21 20 20 19 19 19 16 15 13 13 9 7 6 5 5 4 4 5 6 9 5 7 19 15 10 5 7 9 14 10 14 7 7 7 8 11 11 17 20 19
24 27 27 30 23 24 21 22 22 23 20 19 19 18 15 15 14 12 9 8 7 7 5 5 6 7 11 20 8 11 14 13 9 9 7 6 8 10 5 4 11 9 9 10 9 9 6
23 24 27 28 25 26 24 22 24 23 22 22 20 19 17 16 14 14 12 11 8 8 7 5 7 8 10 7 8 19 15 12 14 15 16 12 8 8 8 9 8 4 3 4 2 8 6
27 27 26 27 26 24 23 24 24 24 26 23 21 19 19 15 13 14 13 11 9 7 8 7 7 6 10 5 8 7 21 16 8 11 16 19 15 6 3 3 4 3 5 6 5 12 5
28 29 29 28 29 27 21 23 25 27 25 24 21 21 19 16 14 13 14 11 9 7 7 7 7 3 10 6 3 1 21 18 10 5 7 10 6 3 2 5 11 11 5 6 6 5 9
29 30 30 30 30 28 27 23 29 27 27 25 23 23 19 17 16 15 16 9 6 5 15 11 9 7 3 1 3 3 5 19 15 7 5 3 3 9 10 7 6 8 5 8 2 7 7
32 29 29 30 31 30 28 30 24 24 30 29 25 24 21 19 19 17 16 11 9 3 4 18 24 22 19 4 4 9 11 11 9 11 4 4 11 9 9 10 9 10 14 18 8 8 11
31 32 32 32 31 31 29 30 31 25 25 31 26 25 23 20 21 19 21 21 10 4 3 7 18 14 19 13 12 11 17 11 5 9 12 16 7 16 12 14 12 14 15 9 8 9 15
34 32 33 33 34 30 30 29 30 32 29 31 28 24 24 22 25 21 21 18 11 5 3 4 4 3 6 10 5 24 20 10 7 15 12 11 18 13 13 16 12 16 7 11 10 10 5
35 34 33 34 34 31 28 29 27 30 28 28 29 26 27 29 22 25 20 14 10 5 3 5 5 4 6 9 5 4 21 18 11 8 6 6 7 16 21 18 14 11 10 9 9 12 10
35 36 34 34 32 32 29 25 24 28 24 18 32 27 29 35 20 13 17 21 15 4 7 7 5 6 5 5 3 4 6 12 3 8 12 8 4 4 16 15 15 3 5 9 3 5 9
36 36 34 35 33 33 31 31 25 23 26 19 33 27 34 34 27 27 24 24 3 4 2 6 5 5 4 6 7 8 8 7 5 4 9 4 11 6 4 3 7 16 8 4 7 7 11
35 35 36 35 34 37 29 30 30 22 23 25 35 24 40 38 29 35 31 2 5 5 5 3 5 8 8 9 7 7 5 9 16 7 2 5 6 15 14 15 7 12 15 5 6 3 8
35 35 35 34 33 39 33 38 27 19 18 26 28 24 40 41 38 36 22 4 7 5 6 10 6 6 7 8 4 9 11 7 13 18 9 6 7 3 9 10 15 4 12 23 6 4 3
35 35 34 33 33 35 37 45 28 15 15 16 21 23 34 45 42 39 8 7 5 4 7 6 7 9 7 6 10 9 8 7 7 18 17 3 5 7 8 7 10 16 7 5 6 4 5
34 34 34 34 34 38 39 39 25 13 17 19 16 10 31 43 40 28 6 5 4 8 9 6 6 5 6 5 10 6 5 5 13 12 21 8 7 3 7 12 17 7 10 8 6 6 3
31 33 32 33 34 37 38 31 24 12 14 12 15 4 40 49 7 5 4 7 6 8 8 2 4 8 5 9 5 8 11 8 14 7 11 13 4 7 17 8 17 23 20 18 7 8 6
29 30 31 33 33 35 39 30 17 7 9 4 6 5 44 45 5 6 5 5 5 6 8 7 8 9 11 7 6 9 11 8 13 12 9 9 4 4 4 5 9 15 17 22 14 3 16
30 29 30 31 31 31 39 31 25 10 7 11 7 5 11 21 10 7 8 7 7 11 8 9 5 11 10 7 12 4 6 6 20 14 21 15 5 7 8 1 7 10 22 22 18 6 10
31 27 28 29 29 30 37 38 26 17 13 12 8 3 8 10 7 9 12 8 13 7 8 11 4 14 8 7 6 10 15 14 4 13 13 9 5 8 14 22 16 18 22 24 26 12 12
30 28 27 28 28 30 34 36 28 19 17 27 4 6 7 9 20 11 13 10 10 8 9 5 8 11 16 12 8 5 6 6 5 11 11 7 4 5 7 8 16 14 17 19 16 13 22
30 26 27 27 28 30 32 33 27 15 10 9 6 15 14 9 8 8 6 9 11 8 14 13 15 13 14 21 22 27 14 16 8 6 10 5 3 4 6 1 14 8 18 14 18 20 8
29 26 26 26 26 27 29 31 30 18 9 11 12 15 6 5 8 9 9 13 15 15 11 9 16 13 5 14 13 18 21 13 6 8 8 5 3 4 3 5 3 4 3 6 6 7 6
28 27 24 26 27 26 29 29 29 15 6 7 17 11 6 2 3 8 9 4 8 17 16 11 19 19 18 13 3 1 2 5 2 2 6 8 2 3 2 2 4 4 5 3 4 3 6
27 26 22 23 25 23 27 27 31 13 18 5 19 12 7 4 6 5 4 4 3 2 7 9 10 14 14 3 3 4 3 4 3 2 2 4 3 2 3 2 1 2 2 1 1 2 0
26 27 23 24 24 25 26 27 29 15 19 13 14 10 8 5 5 7 3 2 3 1 3 1 3 6 14 5 2 3 3 2 3 5 4 3 1 2 2 2 6 4 2 3 2 4 3
25 25 24 24 23 23 23 25 28 12 14 4 21 16 8 3 6 9 9 7 5 4 2 2 2 2 2 4 3 4 3 4 2 3 4 4 5 2 2 1 5 4 3 2 3 2 3
25 24 24 23 25 22 23 24 26 13 9 8 11 20 13 8 4 11 20 21 15 7 7 5 3 2 5 3 2 3 2 2 2 3 1 4 5 4 7 5 1 3 1 3 1 2 3
Wind_Direction
311 322 301 308 310 281 278 278 267 272 278 286 293 284 275 263 259 259 246 254 264 292 291 281 250 228 213 217 224 180 163 12 40 194 226 228 217 195 217 236 266 240 263 257 261 267 266
297 295 311 317 296 301 277 276 269 264 268 273 280 291 271 265 254 249 242 252 260 266 268 260 251 235 223 244 240 218 231 275 239 194 194 221 225 216 264 258 245 292 304 285 265 271 272
301 292 296 285 310 285 287 272 275 257 261 261 269 276 281 262 250 243 238 250 251 257 258 255 249 245 244 247 217 200 225 221 215 220 217 214 227 219 181 294 298 294 300 295 254 260 261
338 317 308 288 291 287 280 274 265 262 254 258 261 264 275 258 247 237 233 242 246 255 254 245 259 250 256 275 254 225 203 215 216 230 237 238 240 279 247 267 330 335 289 262 179 204 230
341 334 330 322 310 289 301 275 265 263 251 254 253 256 262 251 240 231 236 241 249 252 248 240 242 227 267 277 270 257 213 216 204 226 241 254 258 250 299 189 287 241 260 274 298 230 233
338 337 331 327 323 303 300 286 273 259 248 252 249 250 245 237 233 228 230 236 242 248 224 217 183 240 258 269 268 357 198 210 206 209 249 246 221 169 125 169 219 227 236 237 214 314 226
336 334 332 328 318 318 297 301 268 260 248 242 243 249 241 229 222 224 221 219 237 216 205 198 196 209 235 50 195 209 190 207 215 247 217 224 189 217 214 219 247 277 254 256 343 311 308
335 332 328 326 323 319 305 288 290 279 242 241 236 241 235 223 214 221 217 209 209 118 252 235 242 249 246 207 329 208 178 173 183 222 164 271 244 219 218 224 232 245 261 263 288 267 277
335 328 330 329 322 314 312 288 279 288 263 237 230 231 227 216 205 213 221 224 229 246 259 246 242 242 241 241 233 216 189 195 185 220 211 220 223 225 214 225 223 236 242 262 252 291 281
336 331 321 326 323 316 311 306 283 282 280 229 221 222 217 203 194 208 216 219 219 235 274 201 209 236 211 206 254 222 208 194 218 220 228 243 232 253 224 231 217 246 198 245 263 274 253
334 332 326 326 324 324 314 311 298 277 273 240 218 214 209 199 195 199 219 195 174 159 339 176 153 153 177 175 148 189 209 204 219 197 175 215 217 217 232 233 219 250 236 239 257 257 272
335 333 326 325 326 325 319 313 298 280 274 279 219 211 209 191 191 197 190 166 163 59 251 166 140 165 162 211 192 114 160 213 203 228 226 234 273 282 232 239 222 245 239 267 274 266 238
335 333 329 328 328 330 321 307 314 287 281 288 215 216 208 194 186 163 157 153 125 168 179 173 173 168 209 177 201 186 172 201 210 190 239 210 228 241 242 204 223 219 215 220 204 212 240
332 335 331 331 329 328 320 317 305 296 270 278 226 236 210 197 182 165 160 136 188 205 174 136 157 181 192 186 212 181 223 225 214 205 214 196 292 194 195 202 185 208 203 232 196 202 250
332 331 330 332 327 326 325 339 306 293 252 277 223 224 182 186 178 167 156 185 207 199 148 163 160 191 203 206 199 191 215 218 195 194 200 196 244 210 183 183 192 185 214 216 286 232 258
330 330 331 332 326 325 326 330 316 274 255 251 233 216 175 190 178 168 177 213 206 144 121 156 183 184 201 188 194 193 195 217 214 192 203 227 267 198 176 174 226 214 153 167 211 235 236
330 331 332 332 327 325 327 339 327 274 261 249 263 205 186 177 169 166 200 196 184 170 148 165 197 202 217 199 199 195 231 276 199 202 193 222 226 164 163 202 195 182 212 216 181 217 242
330 331 331 330 327 329 329 345 332 286 256 268 241 158 167 174 162 175 167 175 164 164 200 166 200 207 220 189 216 203 226 219 187 158 193 208 247 234 226 225 217 206 206 201 203 210 221
329 332 331 331 329 332 331 336 339 298 258 285 257 182 172 166 150 172 155 184 166 166 179 190 220 207 204 226 227 200 229 232 211 165 183 173 221 270 227 213 187 195 192 200 211 108 236
329 333 332 332 330 335 337 339 347 311 231 312 255 158 152 186 163 152 172 191 198 213 215 190 230 218 210 226 225 260 236 259 202 191 168 174 221 223 266 35 142 162 203 195 195 195 195
331 333 334 333 335 338 338 344 349 340 314 237 242 137 158 185 180 163 178 188 196 186 206 199 227 219 212 232 229 218 245 267 204 173 178 189 254 222 249 252 249 178 186 189 198 194 196
332 335 335 332 334 338 340 347 347 340 336 194 218 134 152 151 151 165 178 195 198 190 181 198 226 222 220 226 206 207 195 217 202 174 190 217 278 256 259 181 200 186 194 203 193 195 213
334 334 334 333 333 337 342 346 344 353 17 219 153 135 144 152 154 174 194 197 199 203 202 202 214 233 229 234 247 258 276 281 280 152 208 219 236 305 327 56 172 187 212 184 174 197 193
333 333 335 334 333 336 341 343 344 323 356 259 164 147 114 166 170 194 181 204 226 235 224 191 233 227 253 261 281 254 261 267 244 173 182 257 252 253 302 317 38 307 83 169 145 168 148
329 334 337 334 335 332 340 346 340 334 359 297 164 163 119 137 171 170 185 190 266 247 220 253 244 235 266 266 225 16 307 356 337 302 195 227 240 310 356 316 292 9 3 53 150 238 186
332 333 338 334 332 329 335 345 343 345 17 179 171 173 154 131 197 196 166 219 217 240 269 240 236 217 184 233 166 181 202 229 196 240 256 176 227 127 354 52 60 217 343 333 237 301 34
333 332 335 337 335 331 334 344 345 335 4 192 210 196 179 150 164 144 143 210 182 224 281 277 194 168 185 201 141 170 209 313 181 193 176 166 175 189 322 304 288 256 313 314 100 238 319
331 328 332 336 333 331 335 342 341 313 6 103 199 202 213 128 169 206 208 191 201 169 244 254 213 201 150 186 152 190 174 203 148 198 194 159 149 161 157 268 301 351 2 122 221 28 4
329 331 331 332 332 329 339 339 333 309 1 169 207 214 226 220 256 224 239 260 252 261 249 234 290 228 189 180 205 121 133 138 167 239 311 215 184 177 186 214 260 324 347 87 66 104 76